Showing default

FENGYUN 1C, 25730

Orbit data source: Space-Track

FENGYUN 1C, 25730 is a payload satellite owned by CNMSC (CN) in SSO that was launched on Mon, 10 May 1999 UTC via a CHANG ZHENG 4B launch vehicle from the Taiyaun Space Center, China (TSC). Payload-class satellites include a variety of spacecraft equipped with specific instruments for various scientific and technological missions. These include communications satellites like Starlink; space stations such as the ISS; scientific satellites like the Hubble; Earth observation satellites from companies like Planet Labs, Umbra, and HawkEye 360; GPS; miniature CubeSats for education and research; and military/defense satellites.

Loading next visibility...
Identifier
25730, 1999-025A
Orbit
SSO
Country
Flag of CNCN / PRC
Related business
Manufacturer
SISE
Mission
Non-operational Civil Imaging
Bus & Motor
FY-1, Unknown motor
Mass
958 kg wet, ~958 kg dry
Launch date (UTC)
1999-05-10 (26 years ago)
Launch vehicle
CHANG ZHENG 4B
Launch site
Taiyaun Space Center, China (TSC)
Object type
Payload
Rocket body
Debris
Shape & HBR
Box + 2 Pan, 4.3 m
Radar Cross Section
5.659 m², Medium (>0.1 m² and < 1m²)

Expand to show TLE details & history
Last TLE update: 22 hours ago

TLE from 22 hours ago
0 FENGYUN 1C
1 25730U 99025A   25259.43827806  .00002116  00000-0  91765-3 0  9994
2 25730  98.8946 324.2761 0008684 317.3550  42.6954 14.25300763358937
Epoch: 2025-09-16T10:31Z
TLE epoch observation values (Epoch: 2025-09-16T10:31:07.224Z)
Latitude
-0.00001°
Longitude
170.86742°
Altitude
805.813 km
Speed
7.453 km/s
True Right ascension
21h 37m 06s
True Declination
0° 00' 00"
Sunlit
Object was in full shadow at epoch
Visualization orbit readout
Latitude
Unknown
Longitude
Unknown
Altitude
Unknown
Speed
Unknown
Apparent Right ascension
Unknown
Apparent Declination
Unknown
Sunlit
N/A
Visualization observer readout
Local Sidereal Time
01:04:33
Azimuth
Unknown
Elevation
Unknown
Doppler factor
Unknown
Orbital elements
Apogee altitude
810.88 km
Perigee altitude
798.405 km
Semi-major axis
7,182.779 km
Eccentricity
0.00087
Inclination
98.8946°
RAAN
324.2761°
Arg. of periapsis
317.355°
True anomaly
42.76293°
Mean anomaly
42.6954°
Eccentric anomaly
42.72916°
Mean motion
3.56537 °/min
Orbital period
100.97 mins
BSTAR
0.00091765
Loading maneuver chart data...
Computing Atmospheric mass density...
Loading historical data...
Loading historical data...
Loading historical data...
Loading historical data...
Loading historical data...
Loading historical data...
Loading historical data...

Documentation

Showing up to 5 results
|